CGUBK CYMM-CYEG

Flight info

Callsign CGUBK
Flight time 1h 18m
Altitude 12000
Route YMM DCT CACHO DCT RESAX RESAX1
Aircraft K100/L-SBDGRY/S

Departure

Time 2026-05-05 23:24
Airport Fort McMurray International Airport (CYMM)

Arrival

Time 2026-05-06 00:42
Airport Edmonton International Airport (CYEG)
Time Latitude Longitude Altitude Speed Heading
2026-05-05 23:14 56.65513 -111.23489 1217 ft 0 kts
2026-05-05 23:21 56.65514 -111.23489 1235 ft 0 kts
2026-05-05 23:21 56.65514 -111.23486 1217 ft 0 kts 73°
2026-05-05 23:21 56.65493 -111.23209 1217 ft 41 kts 92°
2026-05-05 23:21 56.65488 -111.22635 1217 ft 46 kts 89°
2026-05-05 23:22 56.65494 -111.22085 1218 ft 42 kts 90°
2026-05-05 23:22 56.65493 -111.21570 1218 ft 39 kts 90°
2026-05-05 23:22 56.65495 -111.21099 1218 ft 34 kts 89°
2026-05-05 23:22 56.65479 -111.20748 1218 ft 20 kts 139°
2026-05-05 23:23 56.65331 -111.20753 1219 ft 23 kts 214°
2026-05-05 23:23 56.65321 -111.21019 1218 ft 36 kts 269°
2026-05-05 23:23 56.65316 -111.21854 1243 ft 88 kts 272°
2026-05-05 23:23 56.65249 -111.23129 1435 ft 107 kts 265°
2026-05-05 23:24 56.65168 -111.24436 1964 ft 102 kts 268°
2026-05-05 23:24 56.65111 -111.25717 2521 ft 101 kts 268°
2026-05-05 23:24 56.65059 -111.27002 2996 ft 103 kts 268°
2026-05-05 23:24 56.64916 -111.28263 3448 ft 105 kts 229°
2026-05-05 23:25 56.64241 -111.28995 3698 ft 124 kts 205°
2026-05-05 23:25 56.63422 -111.29596 4053 ft 127 kts 204°
2026-05-05 23:25 56.62605 -111.30199 4453 ft 127 kts 204°
2026-05-05 23:25 56.61785 -111.30818 4846 ft 128 kts 204°
2026-05-05 23:26 56.60963 -111.31443 5226 ft 129 kts 206°
2026-05-05 23:26 56.60124 -111.32087 5580 ft 132 kts 205°
2026-05-05 23:26 56.59277 -111.32738 5951 ft 133 kts 205°
2026-05-05 23:26 56.58419 -111.33399 6315 ft 134 kts 205°
2026-05-05 23:27 56.57568 -111.34054 6706 ft 133 kts 205°
2026-05-05 23:27 56.56715 -111.34709 7040 ft 134 kts 205°
2026-05-05 23:27 56.55853 -111.35372 7377 ft 135 kts 205°
2026-05-05 23:27 56.54982 -111.36043 7707 ft 137 kts 205°
2026-05-05 23:28 56.54104 -111.36719 8040 ft 138 kts 206°
2026-05-05 23:28 56.53215 -111.37402 8358 ft 139 kts 206°
2026-05-05 23:28 56.52318 -111.38093 8683 ft 141 kts 206°
2026-05-05 23:28 56.51414 -111.38788 8999 ft 142 kts 206°
2026-05-05 23:29 56.50499 -111.39490 9314 ft 143 kts 206°
2026-05-05 23:29 56.49579 -111.40197 9626 ft 144 kts 206°
2026-05-05 23:29 56.48649 -111.40910 9933 ft 146 kts 206°
2026-05-05 23:29 56.47713 -111.41627 10224 ft 147 kts 206°
2026-05-05 23:30 56.46770 -111.42351 10504 ft 147 kts 206°
2026-05-05 23:30 56.45823 -111.43076 10767 ft 148 kts 206°
2026-05-05 23:30 56.44872 -111.43804 11037 ft 149 kts 206°
2026-05-05 23:30 56.43931 -111.44525 11305 ft 149 kts 206°
2026-05-05 23:31 56.42973 -111.45256 11563 ft 150 kts 206°
2026-05-05 23:31 56.42012 -111.45989 11821 ft 150 kts 206°
2026-05-05 23:31 56.41044 -111.46730 12030 ft 155 kts 206°
2026-05-05 23:31 56.40010 -111.47526 12037 ft 167 kts 206°
2026-05-05 23:32 56.38914 -111.48362 12047 ft 174 kts 205°
2026-05-05 23:32 56.37778 -111.49225 12052 ft 180 kts 205°
2026-05-05 23:32 56.36613 -111.50108 12053 ft 183 kts 205°
2026-05-05 23:32 56.35435 -111.51002 12056 ft 184 kts 205°
2026-05-05 23:33 56.34249 -111.51902 12061 ft 185 kts 205°
2026-05-05 23:33 56.33059 -111.52806 12062 ft 186 kts 205°
2026-05-05 23:33 56.31866 -111.53712 12062 ft 187 kts 205°
2026-05-05 23:33 56.30666 -111.54621 12061 ft 188 kts 205°
2026-05-05 23:34 56.29462 -111.55536 12029 ft 190 kts 205°
2026-05-05 23:34 56.28239 -111.56458 12007 ft 190 kts 205°
2026-05-05 23:34 56.27021 -111.57377 12000 ft 190 kts 205°
2026-05-05 23:34 56.25806 -111.58295 12000 ft 189 kts 205°
2026-05-05 23:35 56.24592 -111.59215 12005 ft 189 kts 205°
2026-05-05 23:35 56.23376 -111.60133 12005 ft 189 kts 205°
2026-05-05 23:35 56.22161 -111.61051 12006 ft 189 kts 205°
2026-05-05 23:35 56.20948 -111.61968 12004 ft 189 kts 205°
2026-05-05 23:36 56.19723 -111.62893 11997 ft 189 kts 205°
2026-05-05 23:36 56.18525 -111.63799 11995 ft 188 kts 205°
2026-05-05 23:36 56.17323 -111.64703 11995 ft 187 kts 205°
2026-05-05 23:36 56.16122 -111.65608 11994 ft 187 kts 205°
2026-05-05 23:37 56.14922 -111.66508 11994 ft 187 kts 205°
2026-05-05 23:37 56.13720 -111.67406 11995 ft 187 kts 205°
2026-05-05 23:37 56.12518 -111.68314 11991 ft 188 kts 205°
2026-05-05 23:37 56.11316 -111.69220 11993 ft 187 kts 205°
2026-05-05 23:38 56.10114 -111.70117 11993 ft 187 kts 205°
2026-05-05 23:38 56.08913 -111.71017 11992 ft 187 kts 205°
2026-05-05 23:38 56.07713 -111.71915 11992 ft 187 kts 205°
2026-05-05 23:38 56.06512 -111.72817 11992 ft 187 kts 205°
2026-05-05 23:39 56.05311 -111.73713 11993 ft 187 kts 205°
2026-05-05 23:39 56.04114 -111.74607 11993 ft 187 kts 205°
2026-05-05 23:39 56.02914 -111.75505 11996 ft 187 kts 205°
2026-05-05 23:39 56.01714 -111.76403 11993 ft 187 kts 205°
2026-05-05 23:40 56.00512 -111.77297 11991 ft 187 kts 205°
2026-05-05 23:40 55.99313 -111.78191 11991 ft 187 kts 205°
2026-05-05 23:40 55.98113 -111.79087 11993 ft 188 kts 205°
2026-05-05 23:40 55.96907 -111.79984 11990 ft 188 kts 205°
2026-05-05 23:41 55.95699 -111.80878 11991 ft 188 kts 205°
2026-05-05 23:41 55.94491 -111.81779 11992 ft 188 kts 205°
2026-05-05 23:41 55.93282 -111.82678 11991 ft 188 kts 205°
2026-05-05 23:41 55.92089 -111.83563 11993 ft 189 kts 205°
2026-05-05 23:42 55.90877 -111.84462 11988 ft 188 kts 205°
2026-05-05 23:42 55.89668 -111.85356 11988 ft 188 kts 205°
2026-05-05 23:42 55.88460 -111.86256 11988 ft 188 kts 205°
2026-05-05 23:42 55.87251 -111.87152 11988 ft 189 kts 205°
2026-05-05 23:43 55.86039 -111.88046 11991 ft 188 kts 205°
2026-05-05 23:43 55.84829 -111.88938 11992 ft 188 kts 205°
2026-05-05 23:43 55.83622 -111.89832 11990 ft 188 kts 205°
2026-05-05 23:43 55.82416 -111.90723 11990 ft 188 kts 205°
2026-05-05 23:44 55.81208 -111.91615 11977 ft 188 kts 205°
2026-05-05 23:44 55.79999 -111.92509 11978 ft 188 kts 205°
2026-05-05 23:44 55.78789 -111.93397 11977 ft 188 kts 205°
2026-05-05 23:44 55.77577 -111.94290 11979 ft 188 kts 205°
2026-05-05 23:45 55.76366 -111.95187 11977 ft 189 kts 205°
2026-05-05 23:45 55.75151 -111.96080 11976 ft 189 kts 205°
2026-05-05 23:45 55.73937 -111.96972 11976 ft 189 kts 205°
2026-05-05 23:45 55.72724 -111.97863 11977 ft 189 kts 205°
2026-05-05 23:46 55.71508 -111.98753 11978 ft 189 kts 205°
2026-05-05 23:46 55.70295 -111.99641 11977 ft 189 kts 205°
2026-05-05 23:46 55.69081 -112.00532 11978 ft 189 kts 205°
2026-05-05 23:46 55.67867 -112.01421 11976 ft 189 kts 205°
2026-05-05 23:47 55.66651 -112.02313 11972 ft 189 kts 205°
2026-05-05 23:47 55.65434 -112.03202 11971 ft 189 kts 205°
2026-05-05 23:47 55.64220 -112.04088 11972 ft 189 kts 205°
2026-05-05 23:47 55.63009 -112.04975 11972 ft 188 kts 205°
2026-05-05 23:48 55.61796 -112.05859 11972 ft 188 kts 205°
2026-05-05 23:48 55.60586 -112.06741 11972 ft 188 kts 205°
2026-05-05 23:48 55.59377 -112.07622 11972 ft 188 kts 205°
2026-05-05 23:48 55.58167 -112.08504 11975 ft 188 kts 205°
2026-05-05 23:49 55.56956 -112.09387 11975 ft 189 kts 205°
2026-05-05 23:49 55.55742 -112.10269 11974 ft 189 kts 205°
2026-05-05 23:49 55.54529 -112.11150 11976 ft 189 kts 205°
2026-05-05 23:49 55.53314 -112.12035 11974 ft 189 kts 205°
2026-05-05 23:50 55.52101 -112.12926 11969 ft 189 kts 205°
2026-05-05 23:50 55.50883 -112.13801 11979 ft 188 kts 205°
2026-05-05 23:50 55.49676 -112.14674 11994 ft 188 kts 205°
2026-05-05 23:50 55.48465 -112.15553 11993 ft 188 kts 205°
2026-05-05 23:51 55.47255 -112.16429 11994 ft 188 kts 205°
2026-05-05 23:51 55.46061 -112.17293 11997 ft 188 kts 205°
2026-05-05 23:51 55.44848 -112.18170 11996 ft 189 kts 205°
2026-05-05 23:51 55.43634 -112.19046 11995 ft 188 kts 205°
2026-05-05 23:52 55.42406 -112.19932 11992 ft 188 kts 205°
2026-05-05 23:52 55.41212 -112.20800 11992 ft 189 kts 205°
2026-05-05 23:52 55.39998 -112.21675 11993 ft 189 kts 204°
2026-05-05 23:52 55.38781 -112.22545 11992 ft 188 kts 205°
2026-05-05 23:53 55.37569 -112.23419 11997 ft 188 kts 205°
2026-05-05 23:53 55.36357 -112.24293 11993 ft 188 kts 205°
2026-05-05 23:53 55.35142 -112.25168 11993 ft 189 kts 205°
2026-05-05 23:53 55.33929 -112.26041 11993 ft 188 kts 205°
2026-05-05 23:54 55.32714 -112.26914 11998 ft 188 kts 204°
2026-05-05 23:54 55.31501 -112.27784 11998 ft 189 kts 204°
2026-05-05 23:54 55.30286 -112.28656 11999 ft 189 kts 205°
2026-05-05 23:54 55.29071 -112.29528 11998 ft 188 kts 204°
2026-05-05 23:55 55.27857 -112.30398 11996 ft 188 kts 204°
2026-05-05 23:55 55.26641 -112.31270 11997 ft 189 kts 204°
2026-05-05 23:55 55.25424 -112.32141 11996 ft 189 kts 204°
2026-05-05 23:55 55.24208 -112.33009 11996 ft 189 kts 204°
2026-05-05 23:56 55.22994 -112.33877 11996 ft 189 kts 204°
2026-05-05 23:56 55.21779 -112.34745 11996 ft 188 kts 204°
2026-05-05 23:56 55.20564 -112.35611 11997 ft 189 kts 204°
2026-05-05 23:56 55.19349 -112.36478 12001 ft 189 kts 204°
2026-05-05 23:57 55.18133 -112.37345 12004 ft 189 kts 204°
2026-05-05 23:57 55.16918 -112.38211 12005 ft 189 kts 204°
2026-05-05 23:57 55.15702 -112.39077 12004 ft 189 kts 204°
2026-05-05 23:57 55.14486 -112.39942 12004 ft 189 kts 204°
2026-05-05 23:58 55.13270 -112.40806 12002 ft 189 kts 204°
2026-05-05 23:58 55.12054 -112.41670 12002 ft 189 kts 204°
2026-05-05 23:58 55.10838 -112.42534 12001 ft 189 kts 204°
2026-05-05 23:58 55.09624 -112.43395 12002 ft 189 kts 204°
2026-05-05 23:59 55.08408 -112.44257 12002 ft 189 kts 204°
2026-05-05 23:59 55.07191 -112.45118 11999 ft 189 kts 205°
2026-05-05 23:59 55.05969 -112.45982 12004 ft 190 kts 205°
2026-05-05 23:59 55.04744 -112.46851 12004 ft 190 kts 205°
2026-05-06 00:00 55.03516 -112.47719 12006 ft 190 kts 205°
2026-05-06 00:00 55.02288 -112.48587 12006 ft 191 kts 205°
2026-05-06 00:00 55.01473 -112.49161 12006 ft 191 kts 205°
2026-05-06 00:00 54.99833 -112.50319 12009 ft 189 kts 204°
2026-05-06 00:01 54.99025 -112.50886 12009 ft 189 kts 204°
2026-05-06 00:01 54.97807 -112.51743 12009 ft 188 kts 204°
2026-05-06 00:01 54.96594 -112.52598 12010 ft 188 kts 204°
2026-05-06 00:01 54.95379 -112.53453 12009 ft 188 kts 204°
2026-05-06 00:02 54.94166 -112.54307 12017 ft 188 kts 204°
2026-05-06 00:02 54.92953 -112.55160 12017 ft 188 kts 204°
2026-05-06 00:02 54.91739 -112.56013 12018 ft 188 kts 204°
2026-05-06 00:02 54.90525 -112.56866 12018 ft 188 kts 204°
2026-05-06 00:03 54.89288 -112.57622 12013 ft 189 kts 202°
2026-05-06 00:03 54.88058 -112.58410 12012 ft 188 kts 202°
2026-05-06 00:03 54.86827 -112.59193 12012 ft 188 kts 202°
2026-05-06 00:03 54.85593 -112.59963 12013 ft 188 kts 202°
2026-05-06 00:04 54.84359 -112.60731 12017 ft 188 kts 202°
2026-05-06 00:04 54.83125 -112.61500 12018 ft 188 kts 202°
2026-05-06 00:04 54.81891 -112.62269 12023 ft 189 kts 202°
2026-05-06 00:04 54.80656 -112.63038 12023 ft 189 kts 202°
2026-05-06 00:05 54.78184 -112.64577 12020 ft 189 kts 202°
2026-05-06 00:05 54.76949 -112.65344 12020 ft 189 kts 202°
2026-05-06 00:05 54.75714 -112.66110 12020 ft 188 kts 202°
2026-05-06 00:06 54.74481 -112.66874 12019 ft 188 kts 202°
2026-05-06 00:06 54.73245 -112.67642 12018 ft 189 kts 202°
2026-05-06 00:06 54.72008 -112.68408 12018 ft 189 kts 202°
2026-05-06 00:06 54.70772 -112.69174 12017 ft 189 kts 202°
2026-05-06 00:07 54.69532 -112.69942 12020 ft 189 kts 202°
2026-05-06 00:07 54.68293 -112.70710 12018 ft 190 kts 202°
2026-05-06 00:07 54.67044 -112.71477 12018 ft 191 kts 202°
2026-05-06 00:07 54.65788 -112.72253 12017 ft 192 kts 202°
2026-05-06 00:08 54.64544 -112.73026 12018 ft 193 kts 202°
2026-05-06 00:08 54.63279 -112.73806 12017 ft 193 kts 202°
2026-05-06 00:08 54.62016 -112.74582 12017 ft 193 kts 202°
2026-05-06 00:08 54.60755 -112.75358 12017 ft 193 kts 202°
2026-05-06 00:09 54.59492 -112.76136 12018 ft 192 kts 202°
2026-05-06 00:09 54.58231 -112.76913 12017 ft 192 kts 202°
2026-05-06 00:09 54.56971 -112.77687 12018 ft 192 kts 202°
2026-05-06 00:09 54.55709 -112.78464 12023 ft 193 kts 202°
2026-05-06 00:10 54.54445 -112.79238 12019 ft 193 kts 202°
2026-05-06 00:10 54.53181 -112.80015 12019 ft 193 kts 202°
2026-05-06 00:10 54.51915 -112.80789 12019 ft 193 kts 202°
2026-05-06 00:10 54.50652 -112.81564 12018 ft 193 kts 202°
2026-05-06 00:11 54.49389 -112.82338 12020 ft 193 kts 202°
2026-05-06 00:11 54.48125 -112.83111 12020 ft 193 kts 202°
2026-05-06 00:11 54.46863 -112.83883 12020 ft 193 kts 202°
2026-05-06 00:11 54.45599 -112.84654 12017 ft 193 kts 202°
2026-05-06 00:12 54.44338 -112.85425 12016 ft 192 kts 202°
2026-05-06 00:12 54.43077 -112.86196 12016 ft 192 kts 202°
2026-05-06 00:12 54.41817 -112.86965 12015 ft 192 kts 202°
2026-05-06 00:12 54.40556 -112.87732 12016 ft 192 kts 202°
2026-05-06 00:13 54.39296 -112.88503 12020 ft 193 kts 202°
2026-05-06 00:13 54.38033 -112.89273 12023 ft 192 kts 202°
2026-05-06 00:13 54.36776 -112.90038 12026 ft 192 kts 202°
2026-05-06 00:13 54.35517 -112.90796 12024 ft 192 kts 202°
2026-05-06 00:14 54.34262 -112.91564 12022 ft 191 kts 202°
2026-05-06 00:14 54.33005 -112.92329 12021 ft 192 kts 202°
2026-05-06 00:14 54.31750 -112.93092 12023 ft 191 kts 202°
2026-05-06 00:14 54.30494 -112.93853 12004 ft 192 kts 202°
2026-05-06 00:15 54.29233 -112.94615 12016 ft 194 kts 202°
2026-05-06 00:15 54.27956 -112.95385 12013 ft 195 kts 202°
2026-05-06 00:15 54.26673 -112.96163 12017 ft 196 kts 202°
2026-05-06 00:15 54.25383 -112.96945 12015 ft 197 kts 202°
2026-05-06 00:16 54.24091 -112.97728 12014 ft 197 kts 202°
2026-05-06 00:16 54.22796 -112.98511 12016 ft 197 kts 202°
2026-05-06 00:16 54.21504 -112.99289 12016 ft 197 kts 202°
2026-05-06 00:16 54.20208 -113.00071 12016 ft 198 kts 202°
2026-05-06 00:17 54.18913 -113.00851 12013 ft 197 kts 202°
2026-05-06 00:17 54.17618 -113.01635 12013 ft 197 kts 202°
2026-05-06 00:17 54.16322 -113.02417 12015 ft 197 kts 202°
2026-05-06 00:17 54.15003 -113.03083 11950 ft 201 kts 192°
2026-05-06 00:18 54.13602 -113.03376 11824 ft 204 kts 188°
2026-05-06 00:18 54.12207 -113.03743 11658 ft 207 kts 191°
2026-05-06 00:18 54.10780 -113.04143 11455 ft 208 kts 190°
2026-05-06 00:18 54.09348 -113.04502 11253 ft 208 kts 189°
2026-05-06 00:19 54.07933 -113.04845 11151 ft 203 kts 189°
2026-05-06 00:19 54.06544 -113.05192 11054 ft 201 kts 190°
2026-05-06 00:19 54.05169 -113.05543 10953 ft 200 kts 189°
2026-05-06 00:19 54.03800 -113.05885 10851 ft 198 kts 189°
2026-05-06 00:20 54.02438 -113.06223 10754 ft 198 kts 189°
2026-05-06 00:20 54.01080 -113.06563 10654 ft 197 kts 189°
2026-05-06 00:20 53.99724 -113.06902 10555 ft 197 kts 189°
2026-05-06 00:20 53.98372 -113.07241 10458 ft 196 kts 189°
2026-05-06 00:21 53.97021 -113.07579 10356 ft 196 kts 189°
2026-05-06 00:21 53.95670 -113.07917 10259 ft 196 kts 189°
2026-05-06 00:21 53.94320 -113.08253 10160 ft 196 kts 189°
2026-05-06 00:21 53.92971 -113.08588 10056 ft 196 kts 189°
2026-05-06 00:22 53.91624 -113.08925 9940 ft 195 kts 189°
2026-05-06 00:22 53.90281 -113.09259 9833 ft 195 kts 189°
2026-05-06 00:22 53.88938 -113.09593 9724 ft 195 kts 189°
2026-05-06 00:22 53.87600 -113.09925 9615 ft 194 kts 189°
2026-05-06 00:23 53.86264 -113.10257 9510 ft 194 kts 189°
2026-05-06 00:23 53.84930 -113.10589 9395 ft 194 kts 189°
2026-05-06 00:23 53.83598 -113.10919 9285 ft 194 kts 189°
2026-05-06 00:23 53.82266 -113.11250 9177 ft 193 kts 189°
2026-05-06 00:24 53.80938 -113.11578 9071 ft 193 kts 189°
2026-05-06 00:24 53.79611 -113.11907 8966 ft 193 kts 189°
2026-05-06 00:24 53.78287 -113.12234 8858 ft 192 kts 189°
2026-05-06 00:24 53.76965 -113.12561 8754 ft 192 kts 189°
2026-05-06 00:25 53.75645 -113.12888 8650 ft 191 kts 189°
2026-05-06 00:25 53.74329 -113.13212 8541 ft 191 kts 189°
2026-05-06 00:25 53.73016 -113.13536 8436 ft 190 kts 189°
2026-05-06 00:25 53.71709 -113.13858 8350 ft 189 kts 188°
2026-05-06 00:26 53.70408 -113.14177 8276 ft 189 kts 189°
2026-05-06 00:26 53.69112 -113.14496 8193 ft 188 kts 189°
2026-05-06 00:26 53.67819 -113.14814 8115 ft 188 kts 188°
2026-05-06 00:26 53.66528 -113.15131 8038 ft 188 kts 188°
2026-05-06 00:27 53.65251 -113.15444 7958 ft 188 kts 188°
2026-05-06 00:27 53.63961 -113.15762 7883 ft 187 kts 188°
2026-05-06 00:27 53.62672 -113.16079 7805 ft 187 kts 189°
2026-05-06 00:27 53.61387 -113.16394 7732 ft 187 kts 188°
2026-05-06 00:28 53.60100 -113.16709 7655 ft 186 kts 188°
2026-05-06 00:28 53.58817 -113.17023 7582 ft 186 kts 188°
2026-05-06 00:28 53.57534 -113.17337 7505 ft 186 kts 188°
2026-05-06 00:28 53.56255 -113.17651 7426 ft 186 kts 188°
2026-05-06 00:29 53.54977 -113.17963 7345 ft 185 kts 188°
2026-05-06 00:29 53.53703 -113.18274 7267 ft 185 kts 188°
2026-05-06 00:29 53.52428 -113.18586 7194 ft 185 kts 188°
2026-05-06 00:29 53.51154 -113.18897 7118 ft 185 kts 188°
2026-05-06 00:30 53.49882 -113.19204 7046 ft 185 kts 188°
2026-05-06 00:30 53.48609 -113.19518 6970 ft 185 kts 189°
2026-05-06 00:30 53.47337 -113.19828 6895 ft 185 kts 188°
2026-05-06 00:30 53.46064 -113.20141 6820 ft 185 kts 188°
2026-05-06 00:31 53.44793 -113.20449 6747 ft 184 kts 188°
2026-05-06 00:31 53.43524 -113.20758 6671 ft 184 kts 188°
2026-05-06 00:31 53.42260 -113.21064 6597 ft 183 kts 188°
2026-05-06 00:31 53.40994 -113.21372 6515 ft 184 kts 188°
2026-05-06 00:32 53.39731 -113.21679 6434 ft 183 kts 188°
2026-05-06 00:32 53.38471 -113.21985 6364 ft 183 kts 188°
2026-05-06 00:32 53.37212 -113.22289 6285 ft 183 kts 188°
2026-05-06 00:32 53.35951 -113.22596 6208 ft 183 kts 188°
2026-05-06 00:33 53.34694 -113.22901 6123 ft 182 kts 188°
2026-05-06 00:33 53.33439 -113.23205 6044 ft 182 kts 187°
2026-05-06 00:33 53.32180 -113.23508 5964 ft 183 kts 188°
2026-05-06 00:33 53.30925 -113.23809 5885 ft 182 kts 188°
2026-05-06 00:34 53.29674 -113.24114 5811 ft 182 kts 188°
2026-05-06 00:34 53.28421 -113.24415 5732 ft 182 kts 188°
2026-05-06 00:34 53.27168 -113.24719 5654 ft 182 kts 187°
2026-05-06 00:34 53.25918 -113.25021 5582 ft 182 kts 187°
2026-05-06 00:35 53.24670 -113.25321 5503 ft 181 kts 187°
2026-05-06 00:35 53.23426 -113.25617 5429 ft 181 kts 187°
2026-05-06 00:35 53.22243 -113.26275 5348 ft 181 kts 212°
2026-05-06 00:35 53.21306 -113.27653 5271 ft 179 kts 227°
2026-05-06 00:36 53.20432 -113.29134 5198 ft 179 kts 226°
2026-05-06 00:36 53.19548 -113.30602 5123 ft 180 kts 226°
2026-05-06 00:36 53.18661 -113.32085 5051 ft 181 kts 226°
2026-05-06 00:36 53.17911 -113.33723 5002 ft 176 kts 247°
2026-05-06 00:37 53.17631 -113.35657 4999 ft 170 kts 270°
2026-05-06 00:37 53.17807 -113.37545 5004 ft 166 kts 293°
2026-05-06 00:37 53.18391 -113.39169 5004 ft 163 kts 315°
2026-05-06 00:37 53.19191 -113.40486 5004 ft 161 kts 318°
2026-05-06 00:38 53.19983 -113.41818 4964 ft 164 kts 318°
2026-05-06 00:38 53.20796 -113.43176 4756 ft 161 kts 318°
2026-05-06 00:38 53.21549 -113.44429 4460 ft 146 kts 316°
2026-05-06 00:38 53.22244 -113.45591 4264 ft 137 kts 319°
2026-05-06 00:39 53.22892 -113.46672 4085 ft 128 kts 319°
2026-05-06 00:39 53.23514 -113.47706 3904 ft 124 kts 320°
2026-05-06 00:39 53.24117 -113.48706 3740 ft 119 kts 318°
2026-05-06 00:39 53.24701 -113.49671 3586 ft 118 kts 318°
2026-05-06 00:40 53.25281 -113.50638 3428 ft 118 kts 318°
2026-05-06 00:40 53.25855 -113.51593 3232 ft 115 kts 319°
2026-05-06 00:40 53.26418 -113.52542 3045 ft 115 kts 319°
2026-05-06 00:40 53.26977 -113.53472 2877 ft 113 kts 319°
2026-05-06 00:41 53.27532 -113.54398 2722 ft 113 kts 319°
2026-05-06 00:41 53.28077 -113.55309 2576 ft 108 kts 316°
2026-05-06 00:41 53.28590 -113.56166 2426 ft 101 kts 316°
2026-05-06 00:41 53.29011 -113.56872 2346 ft 69 kts 317°
2026-05-06 00:42 53.29312 -113.57383 2350 ft 56 kts 316°
2026-05-06 00:42 53.29596 -113.57834 2351 ft 61 kts 316°
2026-05-06 00:42 53.29829 -113.58189 2356 ft 30 kts 338°
2026-05-06 00:42 53.30059 -113.58210 2354 ft 39 kts 354°
2026-05-06 00:43 53.30223 -113.58401 2355 ft 26 kts 352°
2026-05-06 00:43 53.30383 -113.58219 2354 ft 25 kts 40°
2026-05-06 00:43 53.30410 -113.58181 2354 ft 0 kts 42°